Regional Weather Roundup
Issued by NWS

Home | Current Version | Previous Version | Text Only | Print | Product List | Glossary On
Versions: 1 2 3 4 5 6 7 8 9 10 11 12 13 14 15 16 17 18 19 20 21 22 23 24 25 26 27 28 29 30 31 32 33 34 35 36 37 38 39 40 41 42 43 44 45 46 47 48 49 50
000
ASUS43 KLMK 170610
RWRKY
KENTUCKY REGIONAL WEATHER ROUNDUP
NATIONAL WEATHER SERVICE LOUISVILLE KY
200 AM EDT TUE OCT 17 2017

NOTE "FAIR" INDICATES FEW OR NO CLOUDS BELOW 12,000 FEET
WITH NO SIGNIFICANT WEATHER AND/OR OBSTRUCTIONS TO VISIBILITY.

KYZ001>023-026-027-061>063-070>075-170700-
WESTERN AND SOUTH CENTRAL KENTUCKY

CITY           SKY/WX    TMP DP  RH WIND       PRES   REMARKS
PADUCAH        CLEAR     40  37  89 CALM      30.31S
HENDERSON      NOT AVBL
OWENSBORO      CLEAR     44  41  89 CALM      30.33S
HOPKINSVILLE   CLEAR     46  40  80 CALM      30.31S HAZE
BOWLING GREEN  CLEAR     45  44  97 CALM      30.32S
GLASGOW        CLEAR     41  41 100 CALM      30.32S
$$

KYZ024-025-028>034-038-045-046-053-170700-
NORTH CENTRAL KENTUCKY

CITY           SKY/WX    TMP DP  RH WIND       PRES   REMARKS
LOUISVILLE/SDF CLEAR     48  43  82 CALM      30.32S
LOUISVILLE/LOU CLEAR     43  43 100 CALM      30.33S
FORT KNOX      CLEAR     40  40  98 CALM      30.31R FOG
$$

KYZ035>037-039>044-047>052-055>060-089>105-170700-
NORTHEAST KENTUCKY

CITY           SKY/WX    TMP DP  RH WIND       PRES   REMARKS
LEXINGTON      CLEAR     44  38  79 CALM      30.32S
COVINGTON      CLEAR     40  40 100 CALM      30.31S
FRANKFORT      CLEAR     40  37  89 CALM      30.32R
$$

KYZ054-064>069-076>088-106>120-170700-
SOUTHEAST KENTUCKY

CITY           SKY/WX    TMP DP  RH WIND       PRES   REMARKS
JACKSON        CLEAR     47  38  71 CALM      30.31F
LONDON         CLEAR     42  40  92 CALM      30.32S
SOMERSET       CLEAR     39  39 100 CALM      30.34R
MIDDLESBORO    CLEAR     40  40 100 CALM      30.34R
MONTICELLO     CLEAR     38  38 100 NE9       30.34S WCI  31
$$




USA.gov is the U.S. government's official web portal to all federal, state and local government web resources and services.